AirNav   Air Wisconsin pilot careers
 
 1244 users online  

43G Belleville Airport
Belleville, Michigan, USA

GOING TO BELLEVILLE?


FAA INFORMATION EFFECTIVE 11 OCTOBER 2018

Location

FAA Identifier: 43G
Lat/Long: 42-10-36.1450N / 083-32-44.7710W
42-10.602417N / 083-32.746183W
42.1767069 / -83.5457697
(estimated)
Elevation: 696 ft. / 212.1 m (surveyed)
Variation: 05W (1985)
From city: 3 miles SW of BELLEVILLE, MI
Time zone: UTC -4 (UTC -5 during Standard Time)
Zip code: 48197

Airport Operations

Airport use: Open to the public
Activation date: 06/1959
Control tower: no
ARTCC: CLEVELAND CENTER
FSS: LANSING FLIGHT SERVICE STATION
NOTAMs facility: LAN (NOTAM-D service available)
Attendance: IREG
WINTER OPNS VERIFY RY/SNOW CONDITIONS.
Wind indicator: yes
Segmented circle: yes

Airport Communications

CTAF: 122.9
WX ASOS at YIP (4 nm N): PHONE 734-485-9056
WX ASOS at DTW (9 nm E): PHONE 734-955-5015
WX ASOS at ARB (9 nm W): PHONE 734-668-7173
WX AWOS-3 at TTF (15 nm S): 119.075 (734-384-0259)
WX AWOS-3 at ONZ (18 nm E): 119.675 (734-692-9686)

Nearby radio navigation aids

VOR radial/distance  VOR name  Freq  Var
DXOr261/8.3DETROIT VOR/DME113.4006W
CRLr336/8.7CARLETON VOR/DME115.7003W
SVMr174/14.1SALEM VORTAC114.3003W
YQGr268/32.2WINDSOR VOR/DME113.8006W

 
NDB name  Hdg/Dist  Freq  Var  ID
TECUMSEH067/17.423906WTCU - -.-. ..-
GROSSE ILE292/18.141907WRYS .-. -.-- ...
ADRIAN058/30.027806WADG .- -.. --.

Airport Services

Fuel available: 100LL
Parking: tiedowns
Airframe service: MAJOR
Powerplant service: MAJOR
Bottled oxygen: NONE
Bulk oxygen: NONE

Runway Information

Runway 15/33

Dimensions: 2253 x 80 ft. / 687 x 24 m
Surface: turf, in fair condition
Runway edge markings: RY 15/33 THLDS & DSPLCD THLDS MARKED WITH CONES.
RUNWAY 15  RUNWAY 33
Traffic pattern: rightleft
Displaced threshold: 853 ft.600 ft.
Obstructions: 6 ft. fence, 90 ft. from runway, 15:1 slope to clear
APCH RATIO 20:1 TO DSPLCD THLD, +89 FT TREES 1790 FT DSTC.
15 ft. road, 10 ft. from runway
APCH RATIO 21:1 TO DSPLCD THLD, +50' P-LINE 1065 FT DSTC.

Runway 18/36

Dimensions: 2157 x 160 ft. / 657 x 49 m
Surface: turf, in fair condition
RUNWAY 18  RUNWAY 36
Latitude: 42-10.819000N42-10.464000N
Longitude: 083-32.748000W083-32.738000W
Elevation: 696.0 ft.696.0 ft.
Traffic pattern: rightleft
Runway end identifier lights: nono
Obstructions: 20 ft. trees, 25 ft. from runway, 1:1 slope to clear15 ft. road, 25 ft. from runway, 1:1 slope to clear

Airport Ownership and Management from official FAA records

Ownership: Privately-owned
Owner: DANIEL C. GILBERT
7790 RAWSONVILLE RD
BELLEVILLE, MI 48111
Phone 734-612-3136
Manager: DANIEL C. GILBERT
7790 RAWSONVILLE RD
BELLEVILLE, MI 48111
Phone 734-612-3136

Airport Operational Statistics

Aircraft based on the field: 9
Single engine airplanes: 7
Ultralights: 2
    
Aircraft operations: avg 42/month *
50% transient general aviation
50% local general aviation
* for 12-month period ending 31 December 2015

Additional Remarks

SOFT DURING THAWING SEASON.
RWY 18/36 LOCAL USE ONLY - DISPLACEMENTS NOT MARKED.
FOR CD CTC DETROIT APCH AT 800-499-8181.

Instrument Procedures

There are no published instrument procedures at 43G.

Some nearby airports with instrument procedures:

KYIP - Willow Run Airport (4 nm N)
KDTW - Detroit Metropolitan Wayne County Airport (9 nm E)
KARB - Ann Arbor Municipal Airport (9 nm W)
1D2 - Canton-Plymouth-Mettetal Airport (11 nm N)
KTTF - Custer Airport (15 nm S)
KONZ - Grosse Ile Municipal Airport (18 nm E)
Y47 - Oakland Southwest Airport (20 nm N)
 
Loc | Ops | Rwys | IFR | FBO | Links
Com | Nav | Svcs | Stats | Notes


 
Area around 43G (Belleville Airport)
 
Road maps at: MapQuest Bing Google
 
Aerial photo
WARNING: Photo may not be current or correct
Aerial photo of 43G (Belleville Airport)
Do you have a better or more recent aerial photo of Belleville Airport that you would like to share? If so, please send us your photo.

 
Sectional chart

 
Airport distance calculator
Flying to Belleville Airport? Find the distance to fly.

From to 43G

Sunrise and sunset
Times for 17-Oct-2018
 Local
(UTC-4)
 Zulu
(UTC)
Morning civil twilight07:2211:22
Sunrise07:5011:50
Sunset18:4922:49
Evening civil twilight19:1723:17

Current date and time
Zulu (UTC)  17-Oct-2018 22:07:25
Local (UTC-4)  17-Oct-2018 18:07:25
 
METAR
KYIP 
3nm N 
172153Z 30013G19KT 10SM SCT050 08/M02 A3024 RMK AO2 SLP241 T00831022
KARB 
9nm W 
734-668-7173
172153Z AUTO 28011G21KT 10SM BKN049 08/M03 A3024 RMK AO2 SLP244 T00781028
KDTW 
10nm E 
172153Z 31010KT 10SM FEW045 BKN060 08/M02 A3023 RMK AO2 SLP240 T00831022
KTTF 
16nm S 
172156Z AUTO 30011G15KT 10SM BKN050 08/M02 A3024 RMK AO2 T00781021
KONZ 
18nm E 
172155Z AUTO 31013G17KT 10SM SCT055 08/M02 A3023 RMK AO2 T00811019
TAF
KYIP 
3nm N 
171742Z 1718/1818 30015G25KT P6SM BKN045 FM180100 30013KT P6SM SCT045 FM180800 27007KT P6SM SKC FM181700 26010KT P6SM SKC
KDTW 
10nm E 
171742Z 1718/1824 30015G25KT P6SM BKN045 FM180100 30013KT P6SM SCT045 FM180800 27007KT P6SM SKC FM181700 26010KT P6SM SKC
NOTAMs
Click for the latest NOTAMs
NOTAMs are issued by the DoD/FAA and will open in a separate window not controlled by AirNav.

 

 
 

FBO, Fuel Providers, and Aircraft Ground Support

  
 Business Name 
 
 Contact 
 
 Services / Description 
 
Fuel Prices
 
Comments
  
Larsen Air Park 713-612-3136
no information available

If you are affiliated with Larsen Air Park and would like to show here your services, contact info, web link, logo, and more, click here
100LL
AS $4.99 
 Updated 14-Jul-2015
 
   write
AS=Assisted/Self Service
Update Fuel Prices
 

Would you like to see your business listed on this page?

 If your business provides an interesting product or service to pilots, flight crews, aircraft, or users of the Belleville Airport, you should consider listing it here.  To start the listing process, click on the button below
 
Add a business
 

Other Pages about Belleville Airport

Page from the Michigan Airport Directory (PDF)
 
Update a link
 
Copyright © AirNav, LLC. All rights reserved. Privacy Policy  Contact